Regional Weather Roundup
Issued by NWS Grand Forks, ND

Home | Current Version | Previous Version | Text Only | Print | Product List | Glossary On
Versions: 1 2 3 4 5 6 7 8 9 10 11 12 13 14 15 16 17 18 19 20 21 22 23 24 25 26 27 28 29 30 31 32 33 34 35 36 37 38 39 40 41 42 43 44 45 46 47 48 49 50
000
ASUS43 KFGF 281431
RWRFGF
PRAIRIE TO PINES  WEATHER ROUNDUP
NATIONAL WEATHER SERVICE EASTERN NORTH DAKOTA/GRAND FORKS ND
900 AM CDT TUE MAR 28 2017

 **SATELLITE DATA USED TO AUGMENT SKY COVER AT AUTOMATED STATIONS**
 *****  WEATHER ACROSS EASTERN NORTH DAKOTA  *****

CITY           SKY/WX    TMP DP  RH WIND       PRES   REMARKS
GRAND FORKS    CLOUDY    34  33  96 N6        30.17R
GRAND FRKS AFB CLOUDY    33  33  99 N7        30.18R
DEVILS LAKE    CLOUDY    33  31  92 E6        30.16S
FARGO          FOG       32  32 100 N6        30.15R VSB<1/4
WAHPETON ARPT    N/A     32  30  93 CALM      30.16R VSB 1/2
$$

 ***** WEATHER ACROSS CENTRAL AND WESTERN NORTH DAKOTA  *****

CITY           SKY/WX    TMP DP  RH WIND       PRES   REMARKS
BISMARCK       FOG       35  34  96 E8        30.12R VSB 1/2
MINOT          FOG       35  34  96 E10       30.12R VSB 3/4
JAMESTOWN      FOG       30  30 100 CALM      30.13R VSB<1/4
MINOT AFB      CLOUDY    32  32 100 SE12      30.12R FOG     WCI  23
GARRISON         N/A     33  33 100 E12       30.09R WCI  24
WILLISTON      PTSUNNY   37  35  92 N6        30.06R
DICKINSON      CLOUDY    32  30  92 NE6       30.04R
HETTINGER      FAIR      36  32  85 E5        30.05R
$$

 *****  OTHER AIRPORT OBSERVATIONS IN OUR AREA  *****

CITY           SKY/WX    TMP DP  RH WIND       PRES   REMARKS
WALHALLA       NOT AVBL
GRAFTON AIRPOR CLOUDY    32  32 100 NW9       30.22R WCI  24
VALLEY CITY AR FAIR      32  32 100 N5        30.16R FOG
CANDO          NOT AVBL
CAVALIER APRT  PTSUNNY   32  30  93 NW8       30.21R WCI  25
GWINNER        FOG       32  32 100 MISG      30.15R VSB 0
SHEYENNE NWR     N/A     31  31 100 N2        29.95S
ROLLA          MIX PCPN  30  30 100 E7        30.16R WCI  23
 ***** THE ABOVE OBSERVATIONS ARE NON NWS ARE NOT QUALITY
       CONTROLLED AND MAY MIS-REPORT RAIN FOR SNOW...
$$

  *****  WEATHER ACROSS NORTHERN MINNESOTA  *****

CITY           SKY/WX    TMP DP  RH WIND       PRES   REMARKS
FLAG ISLAND    FAIR      32  25  74 N7        30.19R
WARROAD        FAIR      36  28  75 NE7       30.19R
ROSEAU         FAIR      36  30  80 NE6       30.18R
HALLOCK        FAIR      36  30  80 N3        30.19R
THF RVR FALLS  FAIR     N/A N/A N/A NE5       30.17R
BAUDETTE       FAIR      39  30  70 NE5       30.15R
WASKISH        FAIR      41  32  70 E5        30.16R
CROOKSTON      CLOUDY    34  34 100 N6        30.18R
STEPHEN NDAWN    N/A     34  32  93 N7          N/A
GREENBUSH NDAW   N/A     34  30  86 NE3         N/A
$$
  *****  WEATHER ACROSS CENTRAL AND WEST MINNESOTA  *****

CITY           SKY/WX    TMP DP  RH WIND       PRES   REMARKS
FOSSTON        FAIR      37  34  87 NE7       30.15R
BEMIDJI        PTSUNNY   36  31  82 CALM      30.13S
PARK RAPIDS    FAIR      38  29  70 CALM      30.12R
ELBOW LAKE     FAIR      39  36  87 SW3       30.14R
WADENA         FAIR      37  30  75 CALM      30.13R
DETROIT LAKES  FAIR      37  36  93 CALM      30.14R
MOORHEAD       FOG       30  30 100 N5        30.17R VSB<1/4
FERGUS FALLS   FAIR      37  37 100 CALM      30.17R
MORRIS MN      FAIR      39  36  87 N6        30.13R
STAPLES        FAIR      36  34  93 CALM      30.13R
$$
  *****  WEATHER ELSEWHERE ACROSS MINNESOTA  *****

CITY           SKY/WX    TMP DP  RH WIND       PRES   REMARKS
DULUTH         FAIR      41  35  79 CALM      30.12R
INTRNTL FALLS  FAIR      38  28  67 N6        30.15R
ELY            FAIR      36  28  75 CALM      30.13R
CLOQUET        FAIR      43  34  70 CALM      30.13R
WHEATON        FOG       32  30  93 NW3       30.18R VSB<1/4
BRAINERD       FAIR      37  33  85 CALM      30.13R
HIBBING        FAIR      32  30  92 CALM      30.13R
ALEXANDRIA     FAIR      43  37  79 CALM      30.13R
SAINT CLOUD    FAIR      39  36  89 CALM      30.13R
MINNEAPOLIS    FAIR      42  36  79 CALM      30.13R
$$

  *****  WEATHER ACROSS SOUTH DAKOTA  *****

CITY           SKY/WX    TMP DP  RH WIND       PRES   REMARKS
SIOUX FALLS    PTSUNNY   38  37  97 CALM      30.11R
BROOKINGS      FAIR      41  36  82 CALM      30.11R
WATERTOWN      FAIR      35  33  92 CALM      30.11R
HURON          FAIR      39  37  92 SE3       30.09R
SISSETON         N/A     32  32 100 N7        30.14R
ABERDEEN       FAIR      34  30  85 MISG      30.13R
MITCHELL       FAIR      38  37  97 SE5       30.11R FOG
PIERRE         FAIR      43  38  82 E7        30.04R
MOBRIDGE       NOT AVBL
RAPID CITY     CLOUDY    40  33  76 NW6       29.99R
$$

  *****  SOME WEATHER IN NEARBY STATES *****

CITY           SKY/WX    TMP DP  RH WIND       PRES   REMARKS
GLASGOW MT     CLOUDY    36  33  89 NE3       30.06R
GREAT FALLS MT FAIR      33  25  72 SW12      30.09S WCI  24
CHEYENNE WY    LGT RAIN  38  37  97 N13       29.89S FOG
SCOTTSBLUFF NE LGT RAIN  46  43  89 E8        29.91R FOG
OMAHA NE       CLOUDY    42  38  85 N6        30.10R
DES MOINES IA  CLOUDY    48  42  80 N5        30.10R
DAVENPORT IA   LGT RAIN  47  45  93 NE8       30.10R FOG
CHICAGO IL     CLOUDY    42  37  82 N10       30.09R
EAU CLAIRE WI  FOG       31  31 100 NE3       30.14R VSB 1/4
LA CROSSE WI   FOG       35  35 100 CALM      30.14R VSB<1/4
$$

  *****  SOME NATIONAL WEATHER *****

CITY           SKY/WX    TMP DP  RH WIND       PRES   REMARKS
LA GUARDIA NY  CLOUDY    43  39  86 NE13      29.97R FOG
RALEIGH NC     PTSUNNY   63  59  87 SW8       29.94F
ATLANTA GA     PTSUNNY   66  62  87 SW8       30.00R
NEW ORLEANS LA FAIR      72  70  93 SE3       30.01R
OKLAHOMA CITY  PTSUNNY   50  47  89 E14       29.96F FOG
ALBUQUERQUE NM LGT RAIN  43  39  86 N7        29.85F
SALT LAKE CITY MOCLDY    39  32  76 NW14      30.11R
LOS ANGELES CA FAIR      55  44  66 E7        30.01R
BOISE ID       FAIR      34  30  85 CALM      30.26R
SEATTLE WA     LGT RAIN  45  41  86 S10       30.20F
$$

*** WEATHER ACROSS MANITOBA...SASKATCHEWAN AND ONTARIO ***
                ***ONTARIO***

CITY           SKY/WX    TMP DP  RH WIND       PRES   REMARKS
GERALDTON      CLOUDY    28  21  74 N8        30.18R WCI  20
THUNDER BAY    PTSUNNY   36  30  80 CALM      30.14R
SIOUX LOOKOUT  PTSUNNY   28  19  69 E7        30.20R WCI  21
TORONTO        CLOUDY    41  37  87 N14       29.97R
BIG TROUT LK   FLURRIES  16  10  79 N5        30.31R WCI   9
PICKLE LAKE    PTSUNNY   21  14  73 N3        30.23R
DRYDEN         PTSUNNY   28  23  80 NE12      30.18R WCI  18
KENORA         PTSUNNY   30  23  74 NE8       30.19R WCI  23
$$
                *** MANITOBA***

CITY           SKY/WX    TMP DP  RH WIND       PRES   REMARKS
BRANDON        CLOUDY    28  25  86 E12       30.21R WCI  18
DAUPHIN        CLOUDY    27  23  86 E3        30.26S
ISLAND LAKE    NOT AVBL
PILOT MOUND      N/A     30  27  86 NE12        N/A  WCI  21
THE PAS        CLOUDY    18  10  73 SE9       30.30R WCI   6
THOMPSON       PTSUNNY    5   1  85 E5        30.38S WCI  -4
WINNIPEG       MOSUNNY   30  25  80 NE9       30.24R WCI  22
LYNN LAKE      FLURRIES   7   5  92 SE5       30.31R WCI  -2
CHURCHILL      FOG       -6  -9  84 W2        30.48S VSB 5/8
GILLAM         FLURRIES   3  -2  78 N5        30.43R WCI  -6
$$
                ***SASKATCHEWAN***

CITY           SKY/WX    TMP DP  RH WIND       PRES   REMARKS
ESTEVAN        CLOUDY    32  32 100 E13       30.12R FOG     WCI  22
KINDERSLEY     PTCLDY    36  34  93 SE10      29.95S
LLOYDMINSTER   CLOUDY    34  34 100 SE12      29.95S FOG
PRINCE ALBERT  CLOUDY    30  27  86 E12G17    30.11F WCI  21
REGINA         CLOUDY    34  32  93 SE10      30.11S
YORKTON        CLOUDY    32  28  86 E7        30.17R
N. BATTLEFORD    N/A     34 N/A N/A SE17G23   30.03S VSB 5/8 WCI  23
LA RONGE       CLOUDY    19  14  79 NE5       30.17R WCI  13
SASKATOON      CLOUDY    36  34  93 SE13      30.07S
SWIFT CURRENT  MOCLDY    36  34  93 S9        29.98S
$$
NOTE: THESE ARE AUTOMATED STATIONS WITH LIMITED QUALITY CONTROL
      "FAIR" INDICATES FEW OR NO CLOUDS BELOW 12,000 FEET WITH NO
      SIGNIFICANT WEATHER AND/OR OBSTRUCTIONS TO VISIBILITY.
      SKY/WX - SKY CONDITION AND SIGNIFICANT WEATHER.
      TMP - AIR TEMPERATURE.    DP   - DEWPOINT TEMPERATURE.
      RH  - RELATIVE HUMIDITY.  PRES - PRESSURE.
      HX  - HEAT INDEX.         WCI  - WIND CHILL INDEX.
$



USA.gov is the U.S. government's official web portal to all federal, state and local government web resources and services.